Location: ?????
(37.7324°N, 23.9257°E)
Time: 21:59:10
(UTC+00:00)

Okean O Rocket - Pass Details

Date: 29 November 2020
Orbit: 623 x 644 km, 98.2° (Epoch: 18 January)

Event Time Altitude Azimuth Distance (km) Brightness Sun altitude
Rises 04:39:08 0° 14° (NNE) 2,954 5.0 -8.0°
Reaches altitude 10° 04:41:21 10° 17° (NNE) 2,043 4.2 -7.6°
Maximum altitude 04:45:48 73° 102° (ESE) 676 2.0 -6.8°
Drops below altitude 10° 04:50:14 10° 187° (S) 2,033 4.4 -6.0°
Sets 04:52:26 0° 189° (S) 2,939 5.2 -5.6°
